Date String (YYYY-MM-DD hh:mm:ss) UTC,Instrument flags,absolute air pressure of the measurement (hPa),sample flow rate (lpm),inlet stack bypass flow (lpm),air temperature of the measurement (°C),ambient temperature measured by the external sensor (°C),aerosol sample conditioner tube jacket temperature (°C),OPC LED temperature (°C),internal box temperature (°C),relative humidity of the measurement (%),span deviation,mass concentration of particles derived from Lorenz-Mie calculation of OPC scattering (μg/m³),mass concentration of particles derived from Lorenz-Mie calculation of OPC scattering (μg/m³),mass concentration of particles derived from Lorenz-Mie calculation of OPC scattering (μg/m³)
DateTimeUTC,F1_M11,P_M11,Q1_M11,Q2_M11,T1_M11,T2_M11,T3_M11,T4_M11,T5_M11,U1_M11,ZSPAN_M11,X0_M11,X2_M11,X1_M11
2023-11-07 01:00:00,SystemResetWarning,0823.7,5.00,000.00,028.0,027.2,000.0,036.2,029.5,11.1,0006.3,0026.79,0006.61,0004.92
2023-11-07 01:01:00,SystemResetWarning,0823.7,5.00,000.00,028.0,027.2,000.0,036.2,029.5,11.0,0006.2,0027.19,0006.63,0004.94
2023-11-07 01:02:00,SystemResetWarning,0823.7,5.01,000.00,028.0,027.2,000.0,036.2,029.5,11.0,0006.1,0026.47,0006.56,0004.94
2023-11-07 01:03:00,SystemResetWarning,0823.7,5.00,000.00,028.0,027.2,000.0,036.2,029.6,11.0,0005.9,0025.77,0006.51,0004.93
2023-11-07 01:04:00,SystemResetWarning,0823.7,5.00,000.00,028.1,027.3,000.0,036.3,029.6,11.1,0005.7,0025.84,0006.51,0004.92
2023-11-07 01:05:00,SystemResetWarning,0823.7,5.00,000.00,028.1,027.3,000.0,036.3,029.6,11.1,0000.5,0024.32,0006.50,0004.91
2023-11-07 01:06:00,SystemResetWarning,0823.8,5.00,000.00,028.1,027.3,000.0,036.3,029.6,11.1,0002.4,0023.65,0006.43,0004.90
2023-11-07 01:07:00,SystemResetWarning,0823.8,5.00,000.00,028.1,027.3,000.0,036.3,029.6,11.0,0000.0,0024.84,0006.42,0004.89
2023-11-07 01:08:00,SystemResetWarning,0823.8,5.00,000.00,028.1,027.3,000.0,036.3,029.7,11.0,0001.4,0024.85,0006.43,0004.89
2023-11-07 01:09:00,SystemResetWarning,0823.7,4.99,000.00,028.1,026.0,000.0,036.3,029.6,11.0,0002.3,0024.56,0006.37,0004.88
2023-11-07 01:10:00,SystemResetWarning,0823.7,5.01,000.00,028.0,024.2,000.0,036.3,029.3,11.1,0004.5,0024.27,0006.32,0004.88
2023-11-07 01:11:00,SystemResetWarning,0823.8,5.01,000.00,027.9,024.0,000.0,036.3,029.1,11.1,0005.1,0025.46,0006.34,0004.88
2023-11-07 01:12:00,SystemResetWarning,0823.8,5.02,000.00,027.7,024.4,000.0,036.2,028.7,11.3,0003.1,0025.50,0006.32,0004.86
2023-11-07 01:13:00,SystemResetWarning,0823.8,5.00,000.00,027.7,024.8,000.0,036.2,028.7,11.3,0003.9,0025.37,0006.30,0004.84
2023-11-07 01:14:00,SystemResetWarning,0823.8,5.00,000.00,027.6,025.2,000.0,036.1,028.8,11.3,0003.8,0025.06,0006.34,0004.84
2023-11-07 01:15:00,SystemResetWarning,0823.8,5.00,000.00,027.6,025.5,000.0,036.1,028.9,11.4,0004.7,0024.53,0006.37,0004.85
2023-11-07 01:16:00,SystemResetWarning,0823.8,5.00,000.00,027.6,025.8,000.0,036.1,029.0,11.4,0001.4,0025.80,0006.35,0004.84
2023-11-07 01:17:00,SystemResetWarning,0823.8,4.99,000.00,027.6,026.0,000.0,036.0,029.0,11.4,0003.4,0026.62,0006.40,0004.84
2023-11-07 01:18:00,SystemResetWarning,0823.8,5.00,000.00,027.6,026.2,000.0,036.0,029.1,11.4,0005.6,0024.84,0006.37,0004.82
2023-11-07 01:19:00,SystemResetWarning,0823.8,5.01,000.00,027.6,026.3,000.0,036.0,029.1,11.4,0005.4,0024.26,0006.37,0004.81
2023-11-07 01:20:00,SystemResetWarning,0823.8,5.00,000.00,027.6,026.5,000.0,036.0,029.1,11.3,0005.1,0023.15,0006.38,0004.80
2023-11-07 01:21:00,SystemResetWarning,0823.8,5.00,000.00,027.7,026.6,000.0,036.0,029.2,11.3,0005.0,0023.62,0006.34,0004.79
2023-11-07 01:22:00,SystemResetWarning,0823.8,5.00,000.00,027.7,026.7,000.0,036.0,029.2,11.2,0004.9,0023.21,0006.28,0004.78
2023-11-07 01:23:00,SystemResetWarning,0823.8,5.00,000.00,027.7,026.7,000.0,036.0,029.3,11.3,0005.2,0023.71,0006.30,0004.79
2023-11-07 01:24:00,SystemResetWarning,0823.8,5.00,000.00,027.7,026.8,000.0,036.0,029.3,11.3,0005.3,0024.13,0006.35,0004.81
2023-11-07 01:25:00,SystemResetWarning,0823.8,5.00,000.00,027.8,026.9,000.0,036.1,029.4,11.3,0005.5,0024.55,0006.34,0004.82
2023-11-07 01:26:00,SystemResetWarning,0823.8,5.00,000.00,027.8,026.9,000.0,036.1,029.4,11.2,0005.0,0024.53,0006.34,0004.82
2023-11-07 01:27:00,SystemResetWarning,0823.8,5.00,000.00,027.8,027.0,000.0,036.1,029.4,11.2,0004.9,0024.34,0006.37,0004.82
2023-11-07 01:28:00,SystemResetWarning,0823.8,5.00,000.00,027.8,027.0,000.0,036.1,029.4,11.2,0005.0,0022.93,0006.42,0004.83
2023-11-07 01:29:00,SystemResetWarning,0823.8,4.99,000.00,027.9,027.0,000.0,036.1,029.4,11.2,0005.3,0023.39,0006.46,0004.84
2023-11-07 01:30:00,SystemResetWarning,0823.7,4.99,000.00,027.9,027.1,000.0,036.1,029.4,11.2,0005.6,0024.32,0006.42,0004.85
2023-11-07 01:31:00,SystemResetWarning,0823.7,5.00,000.00,027.9,027.1,000.0,036.1,029.5,11.1,0005.8,0024.21,0006.40,0004.87
2023-11-07 01:32:00,SystemResetWarning,0823.7,5.00,000.00,027.9,027.1,000.0,036.2,029.5,11.1,0005.9,0023.92,0006.37,0004.87
2023-11-07 01:33:00,SystemResetWarning,0823.6,5.01,000.00,027.9,027.2,000.0,036.2,029.5,11.0,0005.6,0022.22,0006.41,0004.89
2023-11-07 01:34:00,SystemResetWarning,0823.7,5.01,000.00,028.0,027.2,000.0,036.2,029.5,10.9,0005.4,0021.44,0006.47,0004.90
2023-11-07 01:35:00,SystemResetWarning,0823.7,5.01,000.00,028.0,027.2,000.0,036.2,029.5,10.9,0005.2,0021.42,0006.56,0004.91
2023-11-07 01:36:00,SystemResetWarning,0823.8,4.98,000.00,028.0,027.2,000.0,036.2,029.5,10.8,0005.1,0021.15,0006.57,0004.90
2023-11-07 01:37:00,SystemResetWarning,0823.8,4.99,000.00,028.0,027.3,000.0,036.3,029.6,10.8,0005.0,0021.61,0006.61,0004.91
2023-11-07 01:38:00,SystemResetWarning,0823.7,5.01,000.00,028.0,027.3,000.0,036.3,029.6,10.9,0005.1,0021.88,0006.59,0004.91
2023-11-07 01:39:00,SystemResetWarning,0823.7,5.00,000.00,028.1,027.3,000.0,036.3,029.6,10.9,0004.7,0021.65,0006.56,0004.90
2023-11-07 01:40:00,SystemResetWarning,0823.7,5.01,000.00,028.1,027.3,000.0,036.3,029.6,11.0,0004.5,0023.02,0006.56,0004.90
2023-11-07 01:41:00,SystemResetWarning,0823.7,4.99,000.00,028.1,027.3,000.0,036.3,029.6,11.0,0004.7,0023.28,0006.56,0004.90
2023-11-07 01:42:00,SystemResetWarning,0823.7,4.99,000.00,028.1,027.3,000.0,036.3,029.7,10.9,0004.4,0023.62,0006.66,0004.90
2023-11-07 01:43:00,SystemResetWarning,0823.7,4.99,000.00,028.1,027.4,000.0,036.4,029.7,10.9,0004.5,0025.96,0006.69,0004.91
2023-11-07 01:44:00,SystemResetWarning,0823.8,5.01,000.00,028.2,027.4,000.0,036.4,029.7,10.9,0004.6,0026.78,0006.71,0004.91
2023-11-07 01:45:00,SystemResetWarning,0823.8,4.99,000.00,028.2,026.7,000.0,036.4,029.7,10.9,0004.7,0027.57,0006.70,0004.91
2023-11-07 01:46:00,SystemResetWarning,0823.7,5.00,000.00,028.1,024.2,000.0,036.3,029.3,11.0,0004.4,0027.64,0006.62,0004.90
2023-11-07 01:47:00,SystemResetWarning,0823.7,5.01,000.00,027.9,022.9,000.0,036.3,029.0,11.0,0004.3,0027.22,0006.63,0004.91
2023-11-07 01:48:00,SystemResetWarning,0823.7,5.02,000.00,027.8,023.1,000.0,036.2,028.6,11.1,0004.5,0027.75,0006.62,0004.91
2023-11-07 01:49:00,SystemResetWarning,0823.7,4.99,000.00,027.6,023.6,000.0,036.1,028.4,11.3,0004.6,0028.00,0006.62,0004.93
2023-11-07 01:50:00,SystemResetWarning,0823.7,5.00,000.00,027.5,024.1,000.0,036.1,028.4,11.3,0004.6,0028.64,0006.71,0004.96
2023-11-07 01:51:00,SystemResetWarning,0823.8,5.00,000.00,027.4,024.6,000.0,036.0,028.5,11.3,0004.5,0028.15,0006.69,0004.97
2023-11-07 01:52:00,SystemResetWarning,0823.8,5.01,000.00,027.4,025.0,000.0,035.9,028.6,11.3,0004.2,0026.65,0006.74,0004.98
2023-11-07 01:53:00,SystemResetWarning,0823.8,5.00,000.00,027.4,025.3,000.0,035.9,028.6,11.3,0004.4,0027.23,0006.69,0005.00
2023-11-07 01:54:00,SystemResetWarning,0823.7,4.99,000.00,027.4,025.5,000.0,035.9,028.7,11.3,0004.5,0025.71,0006.78,0004.99
2023-11-07 01:55:00,SystemResetWarning,0823.7,5.00,000.00,027.4,025.8,000.0,035.9,028.8,11.2,0004.8,0024.10,0006.83,0004.99
2023-11-07 01:56:00,SystemResetWarning,0823.7,5.00,000.00,027.4,025.9,000.0,035.8,028.8,11.2,0004.8,0024.59,0006.83,0005.00
2023-11-07 01:57:00,SystemResetWarning,0823.7,5.00,000.00,027.4,026.1,000.0,035.8,028.9,11.1,0004.9,0026.11,0006.86,0005.00
2023-11-07 01:58:00,SystemResetWarning,0823.8,5.01,000.00,027.4,026.2,000.0,035.8,028.9,11.0,0004.9,0027.15,0006.84,0004.99
2023-11-07 01:59:00,SystemResetWarning,0823.8,5.01,000.00,027.5,026.3,000.0,035.8,029.0,11.0,0004.8,0028.30,0006.88,0004.98
